Change the Weather History Date:

Sunday, November 20, 2011

  Actual Average Record
Temperature  
Mean Temperature 31 °F 38 °F  
Max Temperature 41 °F 54 °F 80 °F (1936)
Min Temperature 21 °F 22 °F 7 °F (1929)
Degree Days  
Heating Degree Days 34 27  
Month to date heating degree days 458 456  
Since 1 July heating degree days 864 923  
Cooling Degree Days 0 0  
Month to date cooling degree days 0 0  
Year to date cooling degree days 1533 1121  
Moisture  
Dew Point 22 °F    
Average Humidity 73    
Maximum Humidity 96    
Minimum Humidity 50    
Precipitation  
Precipitation 0.00 in 0.01 in 0.51 in (1979)
Month to date precipitation 0.86 0.31  
Year to date precipitation 14.73  
Snow  
Snow 0.00 in - - ()
Month to date snowfall 0.0  
Snow Depth 0.00 in    
Sea Level Pressure  
Sea Level Pressure 30.14 in    
Wind  
Wind Speed 7 mph (East)    
Max Wind Speed 13 mph    
Max Gust Speed 17 mph    
Visibility 9 miles    
Events      
T = Trace of Precipitation, MM = Missing Value Source: NWS Daily Summary

Daily Weather History Graph

Daily Weather History Graph

Search for Another Location

Airport or City:

Trip Planner

Search our weather history database for the weather conditions in past years. The results will help you decide how hot, cold, wet, or windy it might be!

Date:

Astronomy

Nov. 20, 2011 Rise Set
Actual Time 6:36 AM MST 4:35 PM MST
Civil Twilight 6:08 AM MST 5:04 PM MST
Nautical Twilight 5:36 AM MST 5:36 PM MST
Astronomical Twilight 5:04 AM MST 6:07 PM MST
Moon 1:12 AM MST (11/20) 1:21 PM MST (11/20)
Length of Visible Light 10h 55m
Length of Day
9h 58m
Waning Crescent, 26% of the Moon is Illuminated
Nov 20
Waning Crescent
Nov 24
New
Dec 2
First Quarter
Dec 10
Full
Dec 17
Last Quarter

Hourly Weather History & Observations

Time (MST) Temp. Windchill Dew Point Humidity Pressure Visibility Wind Dir Wind Speed Gust Speed Precip Events Conditions
12:53 AM 25.0 °F - 21.9 °F 88% 30.10 in 10.0 mi Calm Calm - N/A   Clear
1:53 AM 25.0 °F 19.3 °F 21.9 °F 88% 30.11 in 10.0 mi East 4.6 mph - N/A   Clear
2:53 AM 25.0 °F 18.1 °F 21.9 °F 88% 30.12 in 8.0 mi East 5.8 mph - N/A   Clear
3:53 AM 23.0 °F - 21.0 °F 92% 30.13 in 7.0 mi Calm Calm - N/A   Clear
5:06 AM 21.2 °F 13.6 °F 19.4 °F 93% 30.10 in 6.0 mi East 5.8 mph - N/A   Scattered Clouds
5:21 AM 23.0 °F 13.9 °F 19.4 °F 86% 30.10 in 6.0 mi East 8.1 mph - N/A   Mostly Cloudy
5:53 AM 23.0 °F 13.9 °F 21.0 °F 92% 30.17 in 6.0 mi ESE 8.1 mph - N/A   Overcast
6:03 AM 23.0 °F 13.1 °F 21.2 °F 93% 30.12 in 6.0 mi ESE 9.2 mph - N/A   Overcast
6:38 AM 24.8 °F 19.1 °F 21.2 °F 86% 30.13 in 7.0 mi ESE 4.6 mph - N/A   Overcast
6:53 AM 24.1 °F 17.0 °F 21.0 °F 88% 30.19 in 7.0 mi East 5.8 mph - N/A   Overcast
7:29 AM 24.8 °F 19.1 °F 21.2 °F 86% 30.14 in 7.0 mi ESE 4.6 mph - N/A   Scattered Clouds
7:53 AM 25.0 °F 18.1 °F 21.9 °F 88% 30.22 in 7.0 mi SE 5.8 mph - N/A   Clear
8:53 AM 27.0 °F 23.0 °F 21.9 °F 81% 30.24 in 9.0 mi SE 3.5 mph - N/A   Clear
9:53 AM 30.0 °F 24.1 °F 21.9 °F 72% 30.22 in 10.0 mi ENE 5.8 mph - N/A   Clear
10:53 AM 30.9 °F 24.3 °F 21.9 °F 69% 30.20 in 10.0 mi ENE 6.9 mph - N/A   Clear
11:53 AM 33.1 °F 27.7 °F 21.9 °F 64% 30.15 in 10.0 mi ESE 5.8 mph - N/A   Clear
12:53 PM 36.0 °F 30.3 °F 23.0 °F 59% 30.11 in 10.0 mi ESE 6.9 mph - N/A   Clear
1:53 PM 39.0 °F 34.0 °F 23.0 °F 53% 30.09 in 10.0 mi East 6.9 mph - N/A   Clear
2:53 PM 39.9 °F 33.4 °F 23.0 °F 51% 30.07 in 10.0 mi ENE 10.4 mph - N/A   Clear
3:53 PM 39.0 °F 31.0 °F 23.0 °F 53% 30.08 in 10.0 mi East 13.8 mph - N/A   Clear
4:53 PM 34.0 °F 26.0 °F 23.0 °F 64% 30.10 in 10.0 mi East 10.4 mph - N/A   Clear
5:53 PM 30.9 °F 24.3 °F 23.0 °F 72% 30.12 in 10.0 mi East 6.9 mph - N/A   Clear
6:53 PM 28.9 °F 20.4 °F 23.0 °F 78% 30.14 in 10.0 mi ESE 9.2 mph - N/A   Clear
7:53 PM 28.0 °F 20.8 °F 21.9 °F 78% 30.15 in 10.0 mi East 6.9 mph - N/A   Clear
8:53 PM 26.1 °F 17.6 °F 21.0 °F 81% 30.15 in 10.0 mi ENE 8.1 mph - N/A   Clear
9:53 PM 24.1 °F 14.4 °F 21.0 °F 88% 30.15 in 10.0 mi ENE 9.2 mph - N/A   Clear
10:53 PM 23.0 °F 11.7 °F 19.9 °F 88% 30.14 in 9.0 mi East 11.5 mph - N/A   Clear
11:53 PM 21.9 °F 13.4 °F 19.9 °F 92% 30.13 in 8.0 mi East 6.9 mph - N/A   Clear